Hourly Data Report for August 06, 2017

TORONTO CITY
ONTARIO

43°40'00.000" N
79°24'00.000" W
112.50 m
6158355
71508
XTO

Download Data

Hourly Data (August 2017)
Hourly Data Report for August 6, 2017
TIME
LST
Temp Definition
°C
Dew Point Definition
°C
Rel Hum Definition
%
Precip. Amount Definition
mm

Wind Dir Definition
10's deg

Wind Spd Definition
km/h
Visibility Definition
km
Stn Press Definition
kPa
Hmdx Definition


Wind Chill Definition


Weather Definition


00:00 15.8 9.2 65 0.0 LegendMM LegendMM   100.31     LegendNANA
01:00 14.9 9.5 70 0.0 LegendMM LegendMM   100.29     LegendNANA
02:00 14.4 9.8 74 0.0 LegendMM LegendMM   100.29     LegendNANA
03:00 13.6 10.1 80 0.0 LegendMM LegendMM   100.27     LegendNANA
04:00 13.3 10.1 81 0.0 LegendMM LegendMM   100.30     LegendNANA
05:00 13.2 10.0 81 0.0 LegendMM LegendMM   100.36     LegendNANA
06:00 13.6 10.2 80 0.0 LegendMM LegendMM   100.35     LegendNANA
07:00 16.1 10.3 69 0.0 LegendMM LegendMM   100.38     LegendNANA
08:00 18.7 11.2 62 0.0 LegendMM LegendMM   100.41     LegendNANA
09:00 19.7 11.2 58 0.0 LegendMM LegendMM   100.41     LegendNANA
10:00 22.7 11.8 50 0.0 LegendMM LegendMM   100.40 25   LegendNANA
11:00 22.8 12.8 53 0.0 LegendMM LegendMM   100.41 25   LegendNANA
12:00 23.0 11.2 47 0.0 LegendMM LegendMM   100.39 25   LegendNANA
13:00 23.2 12.3 50 0.0 LegendMM LegendMM   100.34 26   LegendNANA
14:00 22.6 13.3 56 0.0 LegendMM LegendMM   100.32 26   LegendNANA
15:00 23.2 13.6 55 0.0 LegendMM LegendMM   100.26 26   LegendNANA
16:00 22.6 14.0 58 0.0 LegendMM LegendMM   100.24 26   LegendNANA
17:00 22.8 13.6 56 0.0 LegendMM LegendMM   100.23 26   LegendNANA
18:00 23.0 11.8 49 0.0 LegendMM LegendMM   100.24 25   LegendNANA
19:00 21.8 11.7 53 0.0 LegendMM LegendMM   100.26     LegendNANA
20:00 21.2 12.2 56 0.0 LegendMM LegendMM   100.28     LegendNANA
21:00 20.5 12.3 59 0.0 LegendMM LegendMM   100.33     LegendNANA
22:00 19.6 12.7 65 0.0 LegendMM LegendMM   100.33     LegendNANA
23:00 19.4 12.8 66 0.0 LegendMM LegendMM   100.35     LegendNANA

Notes on Data Quality.

Legend

  • E = Estimated
  • M = Missing
  • NA = Not Available*
  • [empty] = Indicates an unobserved value
Date modified: